Dewpoint
-1 4 10 10 10 0 -1 -5 -1 -0 2 3 9 9 9 9 10 9 11 11 9 10 11 12 12 12 13 13 12 7 0 -1 -1 2 6 7 7 8 9 8 3 -4 -5 -4 -0 -2 -3 -4 -4
-2 2 9 8 9 11 6 -3 -2 -5 -1 9 9 10 10 10 12 14 13 12 11 10 11 12 13 14 13 10 4 -2 -2 -3 -1 6 8 8 10 10 8 3 -1 -5 -5 -5 -5 -4 -3 -2 1
-2 3 10 11 8 11 10 -2 -3 -2 2 7 8 10 10 12 13 14 13 12 12 11 12 13 13 13 7 2 -5 -5 -4 -3 5 7 9 10 10 7 5 -2 -5 -5 -5 -5 -5 -5 -4 -2 1
2 8 8 11 12 5 5 -2 -1 2 8 7 7 10 12 13 14 14 13 13 12 11 12 13 12 5 -0 -7 -6 -5 -5 3 6 6 10 10 7 2 -1 -5 -5 -6 -6 -6 -6 -6 -5 -4 -3
7 9 9 10 9 6 -1 -2 -1 0 5 6 7 10 12 14 14 15 14 13 12 12 12 10 6 2 -4 -8 -6 -4 2 6 7 9 9 8 2 -3 -5 -6 -7 -7 -8 -8 -8 -8 -7 -6 -5
9 9 9 5 4 6 4 1 -0 0 3 5 7 12 13 13 13 14 15 13 12 11 9 8 3 -1 -7 -8 -5 5 8 8 10 9 10 4 0 -1 -7 -8 -8 -8 -8 -8 -8 -8 -8 -7 -6
7 8 8 6 4 4 5 3 -1 -0 -0 3 9 12 12 13 13 14 14 13 12 9 8 5 0 -4 -8 -5 -2 8 9 10 10 9 3 -2 -5 -6 -8 -8 -9 -9 -9 -9 -10 -9 -9 -8 -7
9 8 8 6 4 4 5 3 2 1 -0 3 11 12 12 13 13 13 14 12 9 9 6 4 0 -4 -4 3 6 3 5 0 0 -5 -5 -6 -7 -7 -8 -10 -11 -11 -11 -11 -10 -9 -8 -8 -8
8 7 7 6 6 4 3 5 5 4 1 5 9 6 12 14 14 14 13 11 10 7 5 3 0 -3 -4 -4 4 -2 -2 -5 -5 -5 -5 -6 -7 -8 -9 -11 -12 -11 -10 -9 -8 -8 -7 -7 -7
7 7 5 5 4 5 4 4 5 3 4 4 4 5 8 13 13 14 13 11 9 7 6 3 1 -4 -3 -2 -4 -4 -4 -4 -4 -4 -5 -6 -8 -9 -11 -10 -10 -9 -9 -9 -9 -9 -8 -8 -7
7 7 5 4 5 5 5 5 5 4 4 3 4 5 7 11 13 13 12 11 9 7 7 5 1 -4 -5 -5 -4 -4 -4 -3 -3 -4 -6 -8 -10 -10 -9 -10 -10 -11 -11 -12 -12 -11 -13 -12 -9
7 6 6 5 4 3 5 5 5 5 3 1 2 2 11 12 13 13 12 11 10 8 8 6 -1 -4 -4 -5 -4 -4 -3 -3 -3 -4 -6 -9 -9 -9 -9 -10 -11 -14 -15 -16 -16 -19 -22 -16 -11
7 5 5 5 5 5 5 6 5 5 4 3 3 1 8 12 13 12 12 10 9 8 8 5 -2 -4 -4 -4 -3 -3 -2 -1 -2 -4 -6 -8 -9 -10 -10 -11 -12 -15 -17 -19 -21 -23 -23 -18 -14
6 6 5 5 5 6 5 5 6 4 4 4 4 4 3 10 12 12 12 11 9 8 9 5 -2 -4 -4 -4 -2 -1 1 0 -1 -4 -6 -8 -10 -11 -12 -12 -14 -16 -18 -21 -22 -20 -20 -19 -18
5 7 6 6 6 6 6 7 6 5 4 4 4 4 3 7 11 11 12 12 9 9 9 5 -3 -4 -4 -2 1 2 2 2 -1 -2 -6 -9 -10 -11 -12 -13 -14 -15 -19 -19 -17 -17 -18 -20 -22
6 7 7 4 5 6 7 6 4 5 6 5 4 5 5 4 8 10 11 11 10 9 9 5 -2 -3 -2 0 2 3 4 3 1 -1 -5 -9 -10 -11 -12 -12 -13 -15 -16 -15 -16 -18 -20 -22 -24
6 6 7 5 4 6 7 6 3 3 5 5 5 4 7 6 9 9 10 11 11 9 9 4 -2 -3 -0 2 3 3 4 3 2 -1 -5 -9 -10 -11 -12 -11 -12 -14 -12 -13 -15 -18 -19 -19 -21
5 6 5 5 4 5 7 7 5 4 5 5 5 4 4 6 7 9 9 11 10 8 8 5 -2 -2 2 3 3 4 4 4 3 -2 -4 -9 -10 -11 -11 -11 -11 -11 -10 -11 -13 -14 -15 -16 -18
3 5 5 4 3 6 6 6 4 4 5 5 5 5 4 4 4 6 7 9 10 9 5 3 -2 -1 2 4 4 5 4 4 2 -2 -6 -9 -10 -11 -11 -10 -10 -9 -9 -9 -11 -11 -12 -13 -17
5 6 5 3 4 5 5 6 5 4 5 5 5 5 4 4 4 3 5 7 9 9 6 4 1 -1 2 3 4 4 5 4 1 -2 -7 -9 -10 -11 -10 -10 -9 -9 -8 -8 -9 -9 -9 -10 -14
5 6 5 5 4 5 6 6 5 3 4 5 5 5 4 4 3 3 5 7 9 8 7 5 3 -0 1 4 4 5 5 3 -0 -3 -7 -8 -9 -10 -10 -9 -9 -8 -8 -8 -8 -8 -9 -10 -14
6 4 5 6 6 6 5 6 3 2 3 5 5 5 5 4 4 2 3 7 7 7 8 6 4 2 2 4 5 5 5 3 -2 -4 -7 -9 -9 -10 -10 -9 -9 -8 -8 -8 -8 -8 -9 -12 -16
5 1 2 3 4 5 4 6 2 0 4 4 5 5 5 4 4 3 3 3 6 4 4 5 5 4 3 5 5 5 5 4 -1 -5 -7 -8 -9 -10 -10 -10 -9 -9 -9 -8 -9 -9 -10 -13 -17
2 3 3 3 5 5 2 5 1 1 2 2 3 5 5 5 4 4 2 3 4 5 2 2 4 5 4 5 6 6 5 4 -1 -6 -7 -8 -9 -9 -9 -9 -9 -9 -9 -9 -9 -10 -12 -15 -20
3 5 5 4 5 3 -1 5 2 -2 -2 -0 0 4 5 5 4 4 3 2 4 4 4 2 1 6 6 6 6 6 6 5 3 -4 -7 -8 -9 -9 -9 -9 -9 -9 -10 -10 -10 -12 -14 -18 -24
3 4 4 4 3 0 1 4 0 -2 -4 -3 -2 -0 4 5 4 4 3 3 3 3 4 3 2 2 6 6 6 6 6 5 4 1 -6 -8 -8 -9 -9 -8 -8 -9 -11 -11 -12 -14 -17 -22 -27
4 4 1 3 3 5 3 2 -1 -1 -1 -2 -2 -0 3 5 5 4 4 3 3 4 4 4 2 2 4 6 6 7 6 5 4 2 -4 -7 -8 -9 -8 -8 -8 -8 -11 -12 -14 -16 -20 -25 -29
-0 -1 3 3 5 3 1 3 2 -1 -1 -2 -2 -1 3 4 5 4 4 4 3 3 3 4 4 2 2 6 6 6 5 5 5 3 -1 -7 -8 -8 -8 -7 -7 -8 -12 -14 -16 -19 -24 -28 -28
3 4 2 1 2 2 4 3 -3 -3 -5 -5 -6 -6 -3 -0 5 5 4 4 4 3 3 3 3 3 3 5 6 6 5 5 4 3 -2 -7 -8 -8 -7 -6 -7 -9 -14 -16 -19 -23 -26 -28 -27
0 2 4 3 2 1 2 3 -4 -4 -3 -5 -4 -3 -3 -5 3 5 4 4 4 5 4 4 3 3 3 4 6 5 5 5 4 3 -3 -7 -7 -7 -5 -6 -7 -11 -16 -19 -23 -26 -28 -28 -25
Wind_Speed
10 9 6 3 2 1 3 5 1 3 2 4 14 6 11 4 6 3 12 25 31 29 28 24 21 22 21 18 14 8 6 5 5 6 8 10 10 12 13 13 11 12 13 13 13 13 12 13 12
8 6 5 2 3 6 4 4 6 4 3 2 10 6 4 3 4 6 20 25 32 30 29 26 25 24 21 14 11 8 7 7 7 10 12 12 15 15 14 14 14 13 13 13 13 12 13 14 14
7 7 5 3 4 15 8 5 4 3 4 4 3 4 4 3 6 16 16 30 31 30 29 28 26 21 16 13 10 9 9 9 11 14 15 16 15 14 14 14 13 13 12 12 12 12 13 14 14
7 5 3 4 17 4 8 5 6 1 3 4 4 2 2 4 11 18 28 35 31 30 29 27 22 18 14 11 11 11 11 12 14 13 16 16 15 14 14 13 12 11 12 12 13 13 13 13 13
8 3 3 5 12 4 4 2 2 3 3 4 6 3 1 6 11 19 33 34 32 30 28 24 20 16 14 12 13 13 14 15 15 17 17 16 15 14 13 12 12 12 12 12 12 12 13 13 13
3 1 2 10 10 6 6 2 3 3 3 5 4 6 4 10 13 24 33 33 29 29 28 24 19 15 13 13 14 17 18 17 18 17 17 16 15 14 12 12 12 11 11 12 12 12 13 13 14
3 2 4 3 4 8 5 6 4 3 2 4 6 7 4 14 17 27 32 30 29 27 25 23 19 16 15 15 18 20 20 20 19 18 16 15 14 12 12 12 11 12 12 12 13 13 13 14 14
2 1 3 3 7 7 8 7 8 9 6 5 10 6 5 20 21 28 32 30 29 26 24 22 20 18 18 20 21 20 19 19 18 15 15 14 13 12 12 12 12 13 14 15 15 15 15 16 16
3 4 5 5 5 3 6 5 7 5 7 9 12 6 6 23 26 32 34 32 30 27 25 22 20 19 19 21 21 19 19 17 17 17 15 14 13 12 13 13 14 15 15 15 16 15 16 16 16
6 4 8 6 3 2 3 5 5 4 6 7 13 11 14 22 31 38 39 38 34 31 27 23 21 20 22 23 22 21 20 19 18 17 15 14 13 14 14 16 15 15 15 15 15 15 15 14 15
6 6 5 4 5 5 3 4 7 6 6 8 14 9 17 22 32 39 41 39 36 31 27 24 22 21 22 24 24 22 22 21 18 16 15 14 15 16 16 17 17 16 14 15 14 14 13 13 14
6 12 13 8 7 11 4 5 5 16 12 11 9 7 23 27 40 42 42 40 36 33 27 26 24 23 24 25 25 23 22 20 18 16 14 14 17 18 18 17 17 16 15 14 14 13 13 12 13
10 12 12 19 24 21 17 12 12 12 23 17 14 8 24 35 40 39 44 40 37 35 31 27 25 25 26 26 26 24 23 20 18 16 16 15 18 19 19 18 17 15 14 14 14 13 13 12 11
5 18 23 15 19 14 10 15 12 5 14 25 21 19 21 32 39 36 42 42 40 36 32 29 27 27 27 27 27 25 23 20 18 17 17 17 18 19 18 18 16 15 14 14 13 12 12 11 9
17 13 10 11 9 7 13 17 17 23 26 21 27 24 22 31 37 40 41 43 40 36 33 31 29 29 29 28 27 25 23 20 19 18 18 18 18 19 18 17 17 16 14 13 12 11 10 10 8
5 8 12 6 13 11 12 17 8 25 23 23 22 17 25 30 36 37 39 42 41 40 35 32 32 32 31 30 27 25 23 21 20 18 19 19 19 18 18 17 16 16 14 12 10 11 9 10 9
7 12 16 10 11 5 14 16 12 25 24 25 29 28 21 26 34 38 40 41 42 42 38 35 33 34 33 30 27 24 24 22 20 19 20 20 20 18 17 16 15 15 12 11 11 10 10 11 10
17 12 11 8 3 12 12 20 15 12 20 23 24 29 27 23 29 35 38 40 41 44 40 36 35 36 35 32 29 27 24 22 20 19 20 21 21 19 17 15 14 13 10 10 10 10 11 11 10
13 10 15 5 3 6 15 20 22 20 14 18 21 26 32 31 28 27 30 35 39 45 42 39 39 39 38 36 34 31 28 25 23 22 21 22 21 19 17 15 13 11 8 8 9 9 11 11 10
18 19 18 12 6 8 12 18 18 14 19 28 27 29 34 36 28 26 32 29 36 46 43 41 40 41 41 38 36 33 30 26 24 24 24 22 21 20 17 14 12 10 7 6 6 7 8 10 10
21 22 18 18 4 7 7 15 20 18 25 27 30 34 37 40 37 28 34 36 34 43 45 43 41 41 41 41 37 34 30 27 28 28 27 25 22 20 18 15 11 9 6 4 4 6 8 10 11
15 12 11 7 8 6 7 8 11 10 20 18 29 30 35 38 45 42 36 36 43 39 44 44 44 43 44 42 39 38 36 34 33 31 28 26 24 21 18 15 12 9 5 2 3 5 8 10 11
9 7 9 13 15 11 15 8 11 15 14 18 22 35 37 41 43 47 49 43 41 37 47 48 48 46 45 43 42 40 36 32 30 31 30 28 25 22 19 16 12 8 5 1 2 5 8 10 11
3 7 4 10 10 12 15 11 14 16 13 18 15 31 37 39 44 48 48 50 44 45 51 51 52 52 48 46 44 41 39 35 34 34 33 30 27 24 21 17 13 9 5 2 3 6 9 11 12
11 7 4 6 7 10 8 12 23 6 12 18 15 27 38 41 43 48 45 51 50 51 52 53 53 55 53 49 46 43 38 35 32 35 34 33 30 27 22 18 13 9 5 3 4 7 9 12 13
14 13 6 7 6 8 7 11 9 14 21 28 19 29 32 39 45 49 55 56 56 48 49 56 55 54 55 52 49 45 41 38 32 32 33 32 29 26 22 18 14 10 6 5 6 8 10 12 14
7 14 17 3 2 4 4 5 8 12 11 10 21 20 28 36 42 47 53 61 60 57 49 51 56 54 55 55 52 49 45 41 34 32 32 31 28 25 22 18 14 10 8 7 7 9 11 13 15
15 7 6 10 9 12 3 4 9 8 8 7 6 14 24 35 43 47 50 54 58 69 54 51 56 57 53 56 55 50 46 41 33 30 31 32 29 26 23 19 14 11 9 8 9 11 12 14 15
8 5 7 6 8 5 1 4 5 4 2 2 4 12 22 30 37 44 49 50 58 61 64 61 59 56 55 55 53 51 46 41 35 31 32 32 29 26 23 18 14 11 10 10 11 12 13 15 16
15 12 9 5 7 8 1 6 2 2 3 2 4 12 16 23 35 44 47 47 51 57 59 61 59 60 54 51 53 52 47 42 37 31 33 31 29 26 21 18 14 11 10 11 12 13 15 16 16
Wind_Direction
240 249 256 257 226 88 213 236 272 234 227 176 136 169 192 160 171 204 156 168 172 167 165 168 167 169 173 184 195 202 189 180 159 138 124 111 105 102 98 96 93 90 88 87 83 78 74 72 69
219 227 223 211 210 219 220 219 220 226 347 201 175 161 173 207 176 147 150 162 171 168 167 166 170 172 183 193 189 186 178 168 149 128 118 112 109 105 103 100 98 96 93 88 84 80 76 75 74
188 183 185 191 208 226 216 206 217 230 288 175 167 187 180 181 177 164 169 161 169 169 170 170 175 183 190 188 183 176 170 156 140 128 124 118 111 107 104 103 101 99 95 91 87 82 79 77 76
170 163 184 227 231 255 212 182 170 165 146 190 183 170 202 198 175 176 163 165 170 172 172 176 181 181 182 184 177 170 163 147 135 128 124 118 114 110 106 104 105 101 96 90 85 82 81 80 77
180 180 216 239 241 238 246 309 204 171 173 183 177 179 101 167 177 171 166 169 174 171 173 177 182 182 181 180 172 164 153 142 134 128 125 121 117 114 111 108 102 98 94 90 88 86 84 83 79
171 199 215 235 234 212 232 210 222 216 195 164 180 144 152 170 184 170 171 172 176 173 172 176 180 182 180 179 169 151 144 140 135 132 128 123 119 115 110 104 100 97 95 93 89 87 85 82 80
157 206 244 268 254 227 219 225 194 193 229 203 170 158 175 178 190 178 175 174 176 176 177 177 177 178 176 172 162 148 145 143 141 140 136 131 126 121 113 107 102 96 94 92 88 86 83 80 80
193 155 286 243 228 248 199 204 203 184 200 186 177 177 176 183 185 182 175 177 178 177 180 181 178 175 170 161 154 155 152 152 154 146 140 134 132 125 115 108 102 100 96 91 89 85 81 80 82
170 239 245 244 177 227 196 220 204 220 178 166 183 176 162 185 185 178 178 179 180 179 180 180 180 178 175 166 161 159 159 157 151 146 143 138 132 124 118 110 107 103 99 93 90 87 84 80 81
185 209 229 206 205 254 229 223 211 189 175 195 171 206 196 189 185 182 182 182 182 179 179 182 183 182 176 170 167 166 161 156 154 150 147 144 136 127 122 115 111 106 100 96 91 88 85 83 82
203 225 207 263 263 274 258 232 221 214 224 202 185 163 180 187 193 190 186 188 183 181 182 184 186 186 181 173 170 166 163 160 156 152 150 148 139 132 127 121 114 108 102 97 91 88 84 82 82
240 248 253 262 265 256 227 245 228 225 243 214 179 179 181 183 189 191 190 188 186 184 188 187 188 186 181 178 173 170 168 164 159 153 150 148 142 135 131 126 118 110 103 99 96 90 82 85 83
224 251 257 255 256 254 258 237 245 244 255 238 231 213 194 185 191 195 199 193 191 187 192 190 189 187 183 180 175 171 168 164 160 154 148 147 142 137 133 128 122 114 106 100 96 88 83 83 81
207 232 249 257 251 245 240 251 233 260 264 245 230 235 215 195 191 197 199 198 195 193 194 194 192 188 186 183 178 173 169 165 161 156 149 147 145 139 137 131 126 118 112 104 98 91 82 76 75
236 252 256 241 236 235 249 255 243 242 243 239 228 231 222 201 195 202 208 204 196 200 197 196 193 188 187 184 180 177 173 170 166 160 154 152 151 144 141 136 130 124 116 108 98 89 80 74 73
191 227 246 220 200 224 183 252 216 237 222 225 228 231 219 211 204 203 216 211 202 202 198 197 193 188 186 185 184 182 181 175 172 167 160 158 156 151 146 142 136 126 118 108 99 89 80 70 69
202 246 229 253 192 181 197 264 240 242 211 217 225 228 219 211 210 210 215 215 210 202 199 196 194 190 186 186 186 182 178 177 177 173 166 163 160 156 153 148 140 127 122 116 103 92 77 70 62
233 232 244 233 178 208 216 253 252 247 206 216 209 220 216 210 215 212 216 220 212 203 199 198 194 189 187 187 184 180 179 180 181 178 173 170 167 162 161 154 146 132 124 115 102 91 79 69 60
226 242 244 210 193 231 237 245 253 241 224 221 214 211 216 221 215 221 213 220 215 205 197 194 191 189 188 189 187 184 183 183 182 181 177 176 173 168 166 161 151 138 128 110 94 82 78 69 60
235 249 256 263 226 250 260 260 261 246 224 222 214 211 216 220 215 216 215 205 227 203 198 195 194 193 193 194 194 191 186 185 184 180 178 180 178 173 170 168 159 147 142 114 90 71 57 52 48
224 239 244 252 276 263 293 271 260 253 234 228 226 215 216 213 216 209 213 205 214 211 201 199 198 197 196 196 196 193 189 186 184 182 182 181 181 179 176 172 168 163 148 122 75 47 36 30 26
241 218 233 232 244 250 181 281 243 243 229 216 221 214 216 211 213 212 204 208 204 205 207 204 203 200 200 199 198 198 194 190 191 186 184 183 182 184 181 180 178 176 168 141 53 30 19 17 12
239 165 219 244 256 265 240 264 273 233 223 218 217 213 214 212 211 210 205 210 208 206 209 208 206 202 204 201 202 200 200 198 192 188 187 186 184 187 186 186 186 186 188 199 11 8 3 359 359
166 194 205 244 240 244 233 225 253 240 222 226 223 216 212 209 208 211 214 206 209 211 207 208 208 204 204 203 202 204 204 199 194 191 191 189 188 187 190 192 193 197 207 253 336 347 347 346 347
209 182 207 215 220 248 208 209 242 246 240 231 224 214 211 209 202 208 205 207 209 206 209 209 209 207 205 204 204 205 208 206 204 199 196 193 193 192 193 195 199 204 220 264 314 329 332 335 337
204 210 221 215 207 253 150 235 250 232 237 240 252 224 210 206 202 200 205 206 208 209 209 209 208 209 206 206 205 206 207 207 208 206 203 201 199 197 196 199 202 211 230 265 300 314 323 328 330
178 207 211 329 149 270 213 288 279 245 237 225 227 224 207 202 200 202 202 203 202 205 207 211 210 210 208 208 207 206 205 207 207 205 204 202 198 197 199 201 207 219 240 267 292 307 317 323 325
206 154 174 212 220 238 242 256 248 298 258 253 246 219 207 203 200 201 200 199 203 206 215 209 212 211 209 209 209 205 203 206 208 206 203 200 198 199 201 205 211 224 247 270 288 302 314 319 321
198 184 210 178 216 227 345 254 209 246 308 5 284 255 237 224 208 202 202 197 200 206 206 208 207 206 207 210 209 205 201 203 205 204 200 198 198 199 203 207 216 229 251 272 289 303 312 316 317
193 189 180 196 220 222 53 273 127 3 18 240 284 332 311 257 219 204 198 192 191 197 196 199 203 202 204 207 206 203 202 200 200 198 198 196 196 198 205 209 220 235 256 275 290 302 310 313 314
Height
1519 1521 1522 1523 1528 1527 1527 1519 1515 1512 1510 1508 1509 1512 1509 1509 1514 1520 1511 1516 1522 1526 1530 1534 1537 1540 1542 1544 1546 1547 1548 1550 1551 1552 1552 1553 1553 1554 1555 1555 1554 1554 1555 1555 1555 1555 1555 1555 1555
1516 1519 1521 1520 1524 1524 1520 1513 1512 1509 1509 1509 1509 1510 1511 1510 1511 1511 1513 1516 1522 1525 1529 1533 1536 1539 1541 1543 1545 1547 1548 1549 1550 1552 1553 1553 1554 1555 1555 1555 1555 1555 1556 1556 1556 1556 1557 1556 1557
1515 1517 1520 1518 1518 1507 1510 1508 1505 1505 1505 1508 1509 1508 1510 1509 1510 1511 1512 1515 1520 1525 1528 1532 1535 1537 1540 1542 1544 1546 1548 1549 1550 1552 1553 1554 1555 1555 1555 1556 1556 1557 1557 1558 1558 1558 1558 1558 1558
1514 1517 1518 1516 1506 1508 1501 1501 1502 1503 1505 1505 1506 1508 1509 1509 1509 1510 1513 1516 1520 1525 1528 1532 1535 1537 1540 1542 1544 1546 1547 1549 1551 1552 1553 1554 1555 1555 1556 1557 1557 1558 1558 1559 1559 1559 1559 1559 1560
1513 1513 1515 1511 1504 1505 1503 1502 1502 1501 1501 1503 1504 1505 1508 1508 1510 1510 1513 1517 1520 1524 1528 1532 1535 1537 1539 1541 1543 1545 1547 1549 1551 1553 1554 1555 1555 1556 1557 1558 1559 1559 1560 1560 1560 1560 1561 1561 1561
1512 1514 1518 1508 1503 1505 1501 1501 1501 1501 1501 1501 1504 1505 1507 1508 1510 1511 1514 1518 1523 1525 1528 1531 1535 1537 1538 1540 1542 1544 1547 1550 1552 1553 1555 1554 1556 1557 1558 1559 1560 1560 1561 1561 1562 1562 1562 1562 1563
1512 1514 1511 1507 1505 1503 1499 1498 1498 1500 1501 1500 1499 1504 1506 1507 1510 1511 1515 1520 1523 1527 1528 1531 1534 1536 1537 1540 1542 1544 1547 1550 1552 1553 1554 1555 1557 1558 1559 1560 1560 1561 1561 1562 1563 1564 1564 1564 1564
1512 1513 1511 1506 1502 1499 1496 1496 1495 1495 1496 1497 1500 1498 1503 1504 1507 1511 1515 1520 1524 1526 1529 1531 1533 1535 1537 1540 1542 1544 1546 1548 1550 1553 1554 1556 1557 1559 1560 1561 1562 1562 1563 1564 1564 1565 1565 1565 1565
1511 1514 1511 1504 1501 1496 1495 1495 1494 1493 1494 1493 1495 1496 1498 1500 1504 1509 1514 1518 1522 1525 1528 1530 1532 1534 1536 1539 1542 1544 1546 1548 1551 1553 1555 1557 1558 1560 1561 1562 1563 1564 1565 1565 1566 1566 1567 1567 1567
1508 1509 1502 1497 1495 1495 1494 1495 1494 1494 1492 1492 1491 1491 1495 1499 1501 1503 1509 1513 1518 1522 1526 1529 1531 1533 1536 1538 1542 1544 1546 1549 1551 1553 1555 1557 1558 1560 1562 1563 1564 1565 1566 1567 1567 1568 1568 1569 1569
1502 1497 1494 1494 1494 1494 1493 1492 1492 1492 1492 1488 1487 1487 1490 1495 1501 1502 1506 1512 1515 1521 1524 1527 1529 1532 1535 1537 1540 1544 1546 1549 1551 1554 1555 1557 1559 1560 1562 1564 1565 1566 1568 1568 1569 1570 1570 1570 1571
1499 1493 1493 1491 1492 1493 1492 1490 1487 1488 1489 1489 1488 1488 1486 1490 1495 1499 1503 1509 1514 1518 1523 1525 1528 1531 1534 1537 1539 1543 1546 1549 1551 1554 1556 1557 1559 1560 1563 1565 1566 1568 1569 1570 1571 1572 1572 1572 1573
1492 1491 1491 1489 1490 1490 1488 1485 1485 1482 1486 1488 1487 1487 1486 1485 1491 1497 1500 1505 1511 1514 1520 1523 1526 1529 1533 1536 1539 1542 1546 1548 1551 1554 1556 1558 1559 1561 1563 1566 1568 1569 1570 1571 1572 1573 1574 1574 1574
1483 1484 1484 1486 1486 1485 1483 1479 1482 1478 1480 1483 1484 1484 1485 1484 1484 1494 1496 1500 1506 1511 1517 1521 1524 1528 1532 1535 1539 1541 1545 1548 1551 1554 1557 1559 1561 1562 1564 1567 1568 1570 1571 1572 1573 1574 1575 1575 1576
1478 1481 1481 1480 1480 1480 1480 1472 1470 1473 1475 1476 1477 1479 1480 1481 1479 1486 1494 1497 1502 1509 1513 1518 1522 1526 1530 1535 1539 1542 1545 1548 1551 1554 1557 1560 1562 1563 1566 1568 1570 1571 1572 1573 1574 1575 1576 1576 1576
1478 1477 1474 1466 1471 1473 1477 1458 1461 1463 1467 1470 1473 1475 1475 1475 1475 1476 1490 1495 1499 1504 1509 1515 1519 1524 1529 1534 1539 1541 1545 1548 1551 1554 1557 1560 1562 1564 1566 1569 1571 1572 1573 1574 1575 1576 1576 1576 1577
1469 1463 1463 1466 1465 1468 1470 1455 1457 1457 1459 1461 1465 1470 1471 1471 1474 1474 1482 1490 1495 1500 1505 1510 1516 1520 1526 1532 1538 1541 1545 1548 1550 1553 1556 1560 1562 1565 1567 1569 1571 1573 1574 1575 1576 1576 1577 1577 1577
1461 1462 1457 1458 1459 1461 1463 1455 1454 1453 1454 1455 1458 1461 1466 1466 1467 1474 1474 1483 1490 1496 1501 1506 1512 1517 1524 1530 1535 1539 1543 1547 1550 1553 1556 1559 1562 1565 1567 1569 1572 1573 1575 1576 1576 1577 1576 1576 1577
1454 1454 1451 1453 1456 1459 1455 1451 1446 1450 1452 1451 1453 1454 1458 1461 1464 1469 1472 1475 1483 1491 1496 1500 1507 1513 1519 1525 1531 1536 1539 1544 1547 1552 1556 1559 1562 1564 1567 1569 1572 1573 1575 1576 1577 1577 1577 1577 1577
1450 1451 1448 1447 1455 1457 1450 1444 1440 1442 1441 1440 1442 1445 1448 1454 1458 1461 1464 1467 1475 1484 1491 1497 1503 1508 1514 1521 1527 1532 1537 1542 1546 1550 1554 1558 1561 1563 1566 1568 1571 1573 1575 1576 1577 1577 1576 1577 1577
1441 1445 1447 1449 1452 1452 1451 1440 1434 1427 1430 1431 1432 1435 1440 1443 1449 1453 1459 1462 1467 1478 1484 1492 1499 1505 1510 1517 1524 1530 1535 1540 1544 1547 1552 1556 1560 1563 1565 1567 1570 1572 1574 1575 1576 1576 1575 1575 1576
1436 1440 1444 1446 1451 1446 1447 1429 1418 1415 1417 1419 1422 1428 1432 1433 1438 1443 1450 1456 1463 1469 1480 1487 1495 1501 1507 1513 1520 1526 1529 1533 1538 1545 1550 1554 1558 1562 1564 1566 1569 1571 1573 1574 1574 1575 1574 1574 1574
1429 1432 1438 1442 1442 1446 1439 1441 1405 1408 1410 1411 1409 1413 1420 1426 1432 1435 1438 1447 1455 1460 1472 1480 1488 1496 1503 1509 1515 1522 1527 1533 1538 1543 1547 1552 1556 1560 1563 1566 1568 1570 1572 1573 1573 1573 1573 1573 1573
1425 1431 1438 1440 1442 1433 1425 1434 1395 1398 1399 1396 1396 1402 1408 1415 1423 1429 1433 1442 1448 1454 1463 1472 1480 1488 1496 1503 1511 1517 1523 1529 1534 1539 1543 1548 1553 1558 1561 1564 1566 1569 1570 1571 1572 1572 1572 1572 1571
1422 1434 1432 1441 1435 1419 1414 1422 1389 1391 1389 1386 1387 1391 1396 1402 1409 1419 1426 1432 1441 1447 1456 1464 1473 1482 1491 1499 1506 1512 1519 1526 1530 1534 1540 1544 1549 1554 1559 1562 1565 1567 1569 1570 1570 1570 1570 1570 1569
1415 1421 1420 1425 1424 1409 1417 1406 1383 1380 1379 1381 1379 1381 1388 1393 1398 1404 1413 1423 1432 1442 1447 1456 1464 1472 1484 1493 1500 1507 1515 1522 1527 1532 1537 1542 1546 1552 1556 1560 1563 1566 1567 1568 1568 1568 1568 1568 1567
1411 1413 1409 1423 1423 1413 1404 1397 1384 1375 1373 1370 1371 1374 1377 1383 1389 1396 1400 1406 1419 1432 1436 1447 1458 1467 1476 1486 1494 1501 1510 1517 1523 1529 1534 1540 1544 1549 1553 1557 1560 1563 1565 1566 1566 1565 1565 1565 1564
1391 1401 1417 1414 1408 1406 1396 1399 1382 1371 1368 1369 1368 1368 1369 1374 1379 1385 1392 1400 1407 1416 1430 1441 1448 1458 1470 1479 1488 1496 1504 1514 1521 1525 1530 1536 1541 1546 1550 1554 1558 1560 1563 1564 1563 1562 1562 1562 1561
1395 1397 1398 1402 1403 1395 1395 1382 1373 1367 1367 1366 1366 1365 1365 1368 1372 1376 1382 1392 1397 1408 1419 1429 1441 1451 1463 1473 1484 1493 1500 1508 1517 1522 1527 1532 1537 1543 1548 1551 1555 1557 1560 1561 1561 1560 1559 1558 1557
1376 1383 1391 1394 1408 1396 1408 1389 1364 1369 1369 1368 1366 1363 1360 1358 1359 1366 1371 1380 1389 1401 1411 1420 1428 1442 1454 1467 1479 1488 1496 1503 1511 1517 1524 1529 1534 1540 1546 1549 1552 1554 1556 1557 1557 1557 1555 1554 1553